Location: ???? ?????
(30.0052°N, 31.2891°E)
Time: 19:52:18
(UTC+00:00)

Cosmos 1331 Rocket - Pass Details

Date: 04 October 2022
Orbit: 748 x 778 km, 74.0° (Epoch: 06 December)

Event Time Altitude Azimuth Distance (km) Brightness Sun altitude
Exits shadow 01:16:31 33° 107° (ESE) 1,251 5.4 -33.7°
Maximum altitude 01:16:47 33° 100° (E) 1,246 5.4 -33.6°
Drops below altitude 10° 01:21:19 10° 38° (NE) 2,268 7.0 -32.7°
Sets 01:23:53 0° 28° (NNE) 3,197 7.8 -32.2°
